Year,Month,Day,Hour,Minute,Value (Times are PST for temperature in C)
2012,04,07,00,00,3.90
2012,04,07,00,01,3.90
2012,04,07,00,02,3.80
2012,04,07,00,03,3.80
2012,04,07,00,04,3.80
2012,04,07,00,05,3.80
2012,04,07,00,06,3.70
2012,04,07,00,07,3.70
2012,04,07,00,08,3.70
2012,04,07,00,09,3.70
2012,04,07,00,10,3.70
2012,04,07,00,11,3.60
2012,04,07,00,12,3.60
2012,04,07,00,13,3.50
2012,04,07,00,14,3.50
2012,04,07,00,15,3.50
2012,04,07,00,16,3.50
2012,04,07,00,17,3.40
2012,04,07,00,18,3.40
2012,04,07,00,19,3.40
2012,04,07,00,20,3.40
2012,04,07,00,21,3.30
2012,04,07,00,22,3.30
2012,04,07,00,23,3.20
2012,04,07,00,24,3.20
2012,04,07,00,25,3.10
2012,04,07,00,26,3.10
2012,04,07,00,27,3.10
2012,04,07,00,28,3.10
2012,04,07,00,29,3.10
2012,04,07,00,30,3.00
2012,04,07,00,31,3.00
2012,04,07,00,32,3.00
2012,04,07,00,33,3.00
2012,04,07,00,34,3.00
2012,04,07,00,35,2.90
2012,04,07,00,36,2.90
2012,04,07,00,37,2.90
2012,04,07,00,38,2.80
2012,04,07,00,39,2.80
2012,04,07,00,40,2.80
2012,04,07,00,41,2.80
2012,04,07,00,42,2.80
2012,04,07,00,43,2.70
2012,04,07,00,44,2.70
2012,04,07,00,45,2.70
2012,04,07,00,46,2.70
2012,04,07,00,47,2.70
2012,04,07,00,48,2.70
2012,04,07,00,49,2.70
2012,04,07,00,50,2.70
2012,04,07,00,51,2.70
2012,04,07,00,52,2.70
2012,04,07,00,53,2.70
2012,04,07,00,54,2.70
2012,04,07,00,55,2.70
2012,04,07,00,56,2.70
2012,04,07,00,57,2.70
2012,04,07,00,58,2.70
2012,04,07,00,59,2.60
2012,04,07,01,00,2.60
2012,04,07,01,01,2.60
2012,04,07,01,02,2.60
2012,04,07,01,03,2.60
2012,04,07,01,04,2.60
2012,04,07,01,05,2.60
2012,04,07,01,06,2.60
2012,04,07,01,07,2.60
2012,04,07,01,08,2.60
2012,04,07,01,09,2.60
2012,04,07,01,10,2.60
2012,04,07,01,11,2.50
2012,04,07,01,12,2.50
2012,04,07,01,13,2.50
2012,04,07,01,14,2.50
2012,04,07,01,15,2.40
2012,04,07,01,16,2.40
2012,04,07,01,17,2.40
2012,04,07,01,18,2.30
2012,04,07,01,19,2.30
2012,04,07,01,20,2.30
2012,04,07,01,21,2.20
2012,04,07,01,22,2.20
2012,04,07,01,23,2.20
2012,04,07,01,24,2.20
2012,04,07,01,25,2.10
2012,04,07,01,26,2.10
2012,04,07,01,27,2.10
2012,04,07,01,28,2.10
2012,04,07,01,29,2.10
2012,04,07,01,30,2.10
2012,04,07,01,31,2.10
2012,04,07,01,32,2.10
2012,04,07,01,33,2.10
2012,04,07,01,34,2.10
2012,04,07,01,35,2.10
2012,04,07,01,36,2.10
2012,04,07,01,37,2.10
2012,04,07,01,38,2.10
2012,04,07,01,39,2.10
2012,04,07,01,40,2.00
2012,04,07,01,41,2.00
2012,04,07,01,42,2.00
2012,04,07,01,43,2.00
2012,04,07,01,44,2.00
2012,04,07,01,45,2.00
2012,04,07,01,46,2.00
2012,04,07,01,47,2.00
2012,04,07,01,48,2.00
2012,04,07,01,49,2.00
2012,04,07,01,50,1.90
2012,04,07,01,51,1.90
2012,04,07,01,52,1.90
2012,04,07,01,53,1.90
2012,04,07,01,54,1.90
2012,04,07,01,55,1.90
2012,04,07,01,56,1.80
2012,04,07,01,57,1.80
2012,04,07,01,58,1.80
2012,04,07,01,59,1.80
2012,04,07,02,00,1.80
2012,04,07,02,01,1.80
2012,04,07,02,02,1.80
2012,04,07,02,03,1.80
2012,04,07,02,04,1.80
2012,04,07,02,05,1.80
2012,04,07,02,06,1.80
2012,04,07,02,07,1.80
2012,04,07,02,08,1.80
2012,04,07,02,09,1.80
2012,04,07,02,10,1.80
2012,04,07,02,11,1.70
2012,04,07,02,12,1.70
2012,04,07,02,13,1.70
2012,04,07,02,14,1.70
2012,04,07,02,15,1.70
2012,04,07,02,16,1.60
2012,04,07,02,17,1.60
2012,04,07,02,18,1.60
2012,04,07,02,19,1.60
2012,04,07,02,20,1.60
2012,04,07,02,21,1.60
2012,04,07,02,22,1.60
2012,04,07,02,23,1.60
2012,04,07,02,24,1.60
2012,04,07,02,25,1.60
2012,04,07,02,26,1.60
2012,04,07,02,27,1.60
2012,04,07,02,28,1.60
2012,04,07,02,29,1.60
2012,04,07,02,30,1.60
2012,04,07,02,31,1.50
2012,04,07,02,32,1.50
2012,04,07,02,33,1.50
2012,04,07,02,34,1.40
2012,04,07,02,35,1.40
2012,04,07,02,36,1.40
2012,04,07,02,37,1.40
2012,04,07,02,38,1.30
2012,04,07,02,39,1.30
2012,04,07,02,40,1.30
2012,04,07,02,41,1.30
2012,04,07,02,42,1.30
2012,04,07,02,43,1.30
2012,04,07,02,44,1.30
2012,04,07,02,45,1.30
2012,04,07,02,46,1.30
2012,04,07,02,47,1.30
2012,04,07,02,48,1.30
2012,04,07,02,49,1.30
2012,04,07,02,50,1.30
2012,04,07,02,51,1.20
2012,04,07,02,52,1.20
2012,04,07,02,53,1.20
2012,04,07,02,54,1.20
2012,04,07,02,55,1.20
2012,04,07,02,56,1.20
2012,04,07,02,57,1.20
2012,04,07,02,58,1.10
2012,04,07,02,59,1.10
2012,04,07,03,00,1.10
2012,04,07,03,01,1.10
2012,04,07,03,02,1.10
2012,04,07,03,03,1.10
2012,04,07,03,04,1.00
2012,04,07,03,05,1.00
2012,04,07,03,06,1.00
2012,04,07,03,07,1.00
2012,04,07,03,08,1.00
2012,04,07,03,09,1.00
2012,04,07,03,10,1.00
2012,04,07,03,11,1.00
2012,04,07,03,12,1.00
2012,04,07,03,13,1.00
2012,04,07,03,14,1.00
2012,04,07,03,15,1.00
2012,04,07,03,16,1.00
2012,04,07,03,17,1.00
2012,04,07,03,18,1.00
2012,04,07,03,19,1.00
2012,04,07,03,20,1.00
2012,04,07,03,21,1.10
2012,04,07,03,22,1.10
2012,04,07,03,23,1.20
2012,04,07,03,24,1.30
2012,04,07,03,25,1.30
2012,04,07,03,26,1.30
2012,04,07,03,27,1.30
2012,04,07,03,28,1.30
2012,04,07,03,29,1.30
2012,04,07,03,30,1.20
2012,04,07,03,31,1.20
2012,04,07,03,32,1.20
2012,04,07,03,33,1.10
2012,04,07,03,34,1.10
2012,04,07,03,35,1.10
2012,04,07,03,36,1.10
2012,04,07,03,37,1.10
2012,04,07,03,38,1.10
2012,04,07,03,39,1.10
2012,04,07,03,40,1.10
2012,04,07,03,41,1.10
2012,04,07,03,42,1.10
2012,04,07,03,43,1.10
2012,04,07,03,44,1.20
2012,04,07,03,45,1.20
2012,04,07,03,46,1.20
2012,04,07,03,47,1.10
2012,04,07,03,48,1.10
2012,04,07,03,49,1.10
2012,04,07,03,50,1.10
2012,04,07,03,51,1.00
2012,04,07,03,52,1.00
2012,04,07,03,53,1.00
2012,04,07,03,54,1.00
2012,04,07,03,55,1.00
2012,04,07,03,56,1.00
2012,04,07,03,57,0.90
2012,04,07,03,58,0.90
2012,04,07,03,59,0.90
2012,04,07,04,00,0.90
2012,04,07,04,01,0.80
2012,04,07,04,02,0.80
2012,04,07,04,03,0.80
2012,04,07,04,07,0.70
2012,04,07,04,08,0.70
2012,04,07,04,10,0.70
2012,04,07,04,11,0.70
2012,04,07,04,12,0.70
2012,04,07,04,13,0.70
2012,04,07,04,14,0.70
2012,04,07,04,15,0.70
2012,04,07,04,16,0.70
2012,04,07,04,17,0.70
2012,04,07,04,18,0.70
2012,04,07,04,19,0.70
2012,04,07,04,20,0.70
2012,04,07,04,21,0.70
2012,04,07,04,22,0.70
2012,04,07,04,23,0.70
2012,04,07,04,24,0.70
2012,04,07,04,25,0.70
2012,04,07,04,26,0.70
2012,04,07,04,27,0.70
2012,04,07,04,28,0.70
2012,04,07,04,29,0.70
2012,04,07,04,30,0.70
2012,04,07,04,31,0.70
2012,04,07,04,32,0.70
2012,04,07,04,33,0.60
2012,04,07,04,34,0.60
2012,04,07,04,35,0.60
2012,04,07,04,36,0.60
2012,04,07,04,37,0.60
2012,04,07,04,38,0.60
2012,04,07,04,39,0.60
2012,04,07,04,40,0.60
2012,04,07,04,41,0.60
2012,04,07,04,42,0.60
2012,04,07,04,43,0.60
2012,04,07,04,44,0.70
2012,04,07,04,45,0.70
2012,04,07,04,46,0.70
2012,04,07,04,47,0.70
2012,04,07,04,48,0.70
2012,04,07,04,49,0.70
2012,04,07,04,50,0.70
2012,04,07,04,51,0.60
2012,04,07,04,52,0.60
2012,04,07,04,53,0.60
2012,04,07,04,54,0.60
2012,04,07,04,55,0.60
2012,04,07,04,56,0.60
2012,04,07,04,57,0.60
2012,04,07,04,58,0.60
2012,04,07,04,59,0.50
2012,04,07,05,00,0.50
2012,04,07,05,01,0.50
2012,04,07,05,02,0.50
2012,04,07,05,03,0.50
2012,04,07,05,04,0.60
2012,04,07,05,05,0.60
2012,04,07,05,06,0.60
2012,04,07,05,07,0.70
2012,04,07,05,08,0.70
2012,04,07,05,09,0.80
2012,04,07,05,10,0.80
2012,04,07,05,11,0.80
2012,04,07,05,12,0.80
2012,04,07,05,13,0.80
2012,04,07,05,14,0.80
2012,04,07,05,15,0.80
2012,04,07,05,16,0.80
2012,04,07,05,17,0.70
2012,04,07,05,18,0.80
2012,04,07,05,19,0.80
2012,04,07,05,20,0.80
2012,04,07,05,21,0.80
2012,04,07,05,22,0.80
2012,04,07,05,23,0.80
2012,04,07,05,24,0.70
2012,04,07,05,25,0.80
2012,04,07,05,26,0.80
2012,04,07,05,27,0.90
2012,04,07,05,28,1.00
2012,04,07,05,29,1.10
2012,04,07,05,30,1.10
2012,04,07,05,31,1.20
2012,04,07,05,32,1.20
2012,04,07,05,33,1.20
2012,04,07,05,34,1.20
2012,04,07,05,35,1.30
2012,04,07,05,36,1.30
2012,04,07,05,37,1.30
2012,04,07,05,38,1.30
2012,04,07,05,39,1.30
2012,04,07,05,40,1.30
2012,04,07,05,41,1.40
2012,04,07,05,42,1.40
2012,04,07,05,43,1.50
2012,04,07,05,44,1.60
2012,04,07,05,45,1.60
2012,04,07,05,46,1.70
2012,04,07,05,47,1.70
2012,04,07,05,48,1.60
2012,04,07,05,49,1.50
2012,04,07,05,50,1.50
2012,04,07,05,51,1.40
2012,04,07,05,52,1.30
2012,04,07,05,53,1.30
2012,04,07,05,54,1.30
2012,04,07,05,55,1.30
2012,04,07,05,56,1.30
2012,04,07,05,57,1.30
2012,04,07,05,58,1.30
2012,04,07,05,59,1.50
2012,04,07,06,00,1.60
2012,04,07,06,01,1.70
2012,04,07,06,02,1.80
2012,04,07,06,03,1.90
2012,04,07,06,04,2.00
2012,04,07,06,05,2.10
2012,04,07,06,06,2.10
2012,04,07,06,07,2.00
2012,04,07,06,08,2.00
2012,04,07,06,09,2.00
2012,04,07,06,10,2.10
2012,04,07,06,11,2.10
2012,04,07,06,12,2.10
2012,04,07,06,13,2.20
2012,04,07,06,14,2.20
2012,04,07,06,15,2.20
2012,04,07,06,16,2.30
2012,04,07,06,17,2.30
2012,04,07,06,18,2.40
2012,04,07,06,19,2.40
2012,04,07,06,20,2.40
2012,04,07,06,21,2.40
2012,04,07,06,22,2.30
2012,04,07,06,23,2.30
2012,04,07,06,24,2.40
2012,04,07,06,25,2.40
2012,04,07,06,26,2.50
2012,04,07,06,27,2.60
2012,04,07,06,28,2.60
2012,04,07,06,29,2.60
2012,04,07,06,30,2.70
2012,04,07,06,31,2.70
2012,04,07,06,32,2.70
2012,04,07,06,33,2.70
2012,04,07,06,34,2.70
2012,04,07,06,35,2.60
2012,04,07,06,36,2.60
2012,04,07,06,37,2.50
2012,04,07,06,38,2.50
2012,04,07,06,39,2.50
2012,04,07,06,40,2.50
2012,04,07,06,41,2.40
2012,04,07,06,42,2.50
2012,04,07,06,43,2.50
2012,04,07,06,44,2.50
2012,04,07,06,45,2.60
2012,04,07,06,46,2.60
2012,04,07,06,47,2.70
2012,04,07,06,48,2.70
2012,04,07,06,49,2.70
2012,04,07,06,50,2.70
2012,04,07,06,51,2.80
2012,04,07,06,52,2.80
2012,04,07,06,53,2.80
2012,04,07,06,54,2.80
2012,04,07,06,55,2.90
2012,04,07,06,56,2.90
2012,04,07,06,57,2.90
2012,04,07,06,58,2.90
2012,04,07,06,59,2.90
2012,04,07,07,00,2.80
2012,04,07,07,01,2.80
2012,04,07,07,02,2.80
2012,04,07,07,03,2.80
2012,04,07,07,04,2.80
2012,04,07,07,05,2.80
2012,04,07,07,06,2.80
2012,04,07,07,07,2.80
2012,04,07,07,08,2.80
2012,04,07,07,09,2.90
2012,04,07,07,10,2.90
2012,04,07,07,11,2.90
2012,04,07,07,12,2.90
2012,04,07,07,13,2.90
2012,04,07,07,14,3.00
2012,04,07,07,15,3.00
2012,04,07,07,16,3.00
2012,04,07,07,17,3.10
2012,04,07,07,18,3.10
2012,04,07,07,19,3.20
2012,04,07,07,20,3.20
2012,04,07,07,21,3.20
2012,04,07,07,22,3.20
2012,04,07,07,23,3.30
2012,04,07,07,24,3.30
2012,04,07,07,25,3.30
2012,04,07,07,26,3.30
2012,04,07,07,27,3.40
2012,04,07,07,28,3.40
2012,04,07,07,29,3.40
2012,04,07,07,30,3.40
2012,04,07,07,31,3.40
2012,04,07,07,32,3.50
2012,04,07,07,33,3.50
2012,04,07,07,34,3.50
2012,04,07,07,35,3.60
2012,04,07,07,36,3.70
2012,04,07,07,37,3.70
2012,04,07,07,38,3.80
2012,04,07,07,39,3.80
2012,04,07,07,40,3.80
2012,04,07,07,41,3.90
2012,04,07,07,42,3.90
2012,04,07,07,43,4.00
2012,04,07,07,44,4.00
2012,04,07,07,45,4.10
2012,04,07,07,46,4.10
2012,04,07,07,47,4.20
2012,04,07,07,48,4.20
2012,04,07,07,49,4.30
2012,04,07,07,50,4.30
2012,04,07,07,51,4.40
2012,04,07,07,52,4.40
2012,04,07,07,53,4.50
2012,04,07,07,54,4.60
2012,04,07,07,55,4.60
2012,04,07,07,56,4.70
2012,04,07,07,57,4.70
2012,04,07,07,58,4.70
2012,04,07,07,59,4.80
2012,04,07,08,00,4.80
2012,04,07,08,01,4.80
2012,04,07,08,02,4.80
2012,04,07,08,03,4.90
2012,04,07,08,04,4.90
2012,04,07,08,05,4.90
2012,04,07,08,06,5.00
2012,04,07,08,07,5.00
2012,04,07,08,08,5.00
2012,04,07,08,09,5.10
2012,04,07,08,10,5.10
2012,04,07,08,11,5.10
2012,04,07,08,12,5.10
2012,04,07,08,13,5.10
2012,04,07,08,14,5.10
2012,04,07,08,15,5.10
2012,04,07,08,16,5.20
2012,04,07,08,17,5.20
2012,04,07,08,18,5.20
2012,04,07,08,19,5.20
2012,04,07,08,20,5.30
2012,04,07,08,21,5.30
2012,04,07,08,22,5.30
2012,04,07,08,23,5.30
2012,04,07,08,24,5.30
2012,04,07,08,25,5.30
2012,04,07,08,26,5.30
2012,04,07,08,27,5.30
2012,04,07,08,28,5.30
2012,04,07,08,29,5.30
2012,04,07,08,30,5.30
2012,04,07,08,31,5.30
2012,04,07,08,32,5.30
2012,04,07,08,33,5.30
2012,04,07,08,34,5.30
2012,04,07,08,35,5.40
2012,04,07,08,36,5.40
2012,04,07,08,37,5.50
2012,04,07,08,38,5.50
2012,04,07,08,39,5.50
2012,04,07,08,40,5.50
2012,04,07,08,41,5.60
2012,04,07,08,42,5.60
2012,04,07,08,43,5.60
2012,04,07,08,44,5.60
2012,04,07,08,45,5.60
2012,04,07,08,46,5.70
2012,04,07,08,47,5.70
2012,04,07,08,48,5.70
2012,04,07,08,49,5.70
2012,04,07,08,50,5.70
2012,04,07,08,51,5.80
2012,04,07,08,52,5.80
2012,04,07,08,53,5.80
2012,04,07,08,54,5.90
2012,04,07,08,55,5.90
2012,04,07,08,56,6.00
2012,04,07,08,57,6.00
2012,04,07,08,58,6.10
2012,04,07,08,59,6.10
2012,04,07,09,00,6.10
2012,04,07,09,01,6.20
2012,04,07,09,02,6.20
2012,04,07,09,03,6.10
2012,04,07,09,04,6.10
2012,04,07,09,05,6.10
2012,04,07,09,06,6.10
2012,04,07,09,07,6.00
2012,04,07,09,08,6.00
2012,04,07,09,09,6.00
2012,04,07,09,10,6.00
2012,04,07,09,11,6.00
2012,04,07,09,12,6.00
2012,04,07,09,13,6.00
2012,04,07,09,14,6.00
2012,04,07,09,15,6.00
2012,04,07,09,16,5.90
2012,04,07,09,17,5.90
2012,04,07,09,18,5.90
2012,04,07,09,19,5.90
2012,04,07,09,20,6.00
2012,04,07,09,21,6.00
2012,04,07,09,22,6.00
2012,04,07,09,23,6.10
2012,04,07,09,24,6.20
2012,04,07,09,25,6.20
2012,04,07,09,26,6.30
2012,04,07,09,27,6.40
2012,04,07,09,28,6.50
2012,04,07,09,29,6.50
2012,04,07,09,30,6.60
2012,04,07,09,31,6.60
2012,04,07,09,32,6.70
2012,04,07,09,33,6.70
2012,04,07,09,34,6.70
2012,04,07,09,35,6.70
2012,04,07,09,36,6.70
2012,04,07,09,37,6.80
2012,04,07,09,38,6.80
2012,04,07,09,39,6.80
2012,04,07,09,40,6.80
2012,04,07,09,41,6.80
2012,04,07,09,42,6.80
2012,04,07,09,43,6.70
2012,04,07,09,44,6.70
2012,04,07,09,45,6.70
2012,04,07,09,46,6.70
2012,04,07,09,47,6.70
2012,04,07,09,48,6.70
2012,04,07,09,49,6.70
2012,04,07,09,50,6.70
2012,04,07,09,51,6.80
2012,04,07,09,52,6.80
2012,04,07,09,53,6.90
2012,04,07,09,54,6.90
2012,04,07,09,55,6.90
2012,04,07,09,56,6.90
2012,04,07,09,57,6.90
2012,04,07,09,58,7.00
2012,04,07,09,59,7.00
2012,04,07,10,00,7.00
2012,04,07,10,01,7.00
2012,04,07,10,02,6.90
2012,04,07,10,03,6.90
2012,04,07,10,04,6.90
2012,04,07,10,05,6.90
2012,04,07,10,06,6.90
2012,04,07,10,07,7.00
2012,04,07,10,08,7.00
2012,04,07,10,09,7.10
2012,04,07,10,10,7.20
2012,04,07,10,11,7.20
2012,04,07,10,12,7.20
2012,04,07,10,13,7.30
2012,04,07,10,14,7.30
2012,04,07,10,15,7.40
2012,04,07,10,16,7.50
2012,04,07,10,17,7.50
2012,04,07,10,18,7.60
2012,04,07,10,19,7.60
2012,04,07,10,20,7.70
2012,04,07,10,21,7.70
2012,04,07,10,22,7.80
2012,04,07,10,23,7.80
2012,04,07,10,24,7.90
2012,04,07,10,25,8.00
2012,04,07,10,26,8.00
2012,04,07,10,27,8.00
2012,04,07,10,28,8.00
2012,04,07,10,29,8.00
2012,04,07,10,30,8.10
2012,04,07,10,31,8.10
2012,04,07,10,32,8.10
2012,04,07,10,33,8.20
2012,04,07,10,34,8.10
2012,04,07,10,35,8.10
2012,04,07,10,36,8.20
2012,04,07,10,37,8.20
2012,04,07,10,38,8.20
2012,04,07,10,39,8.20
2012,04,07,10,40,8.10
2012,04,07,10,41,8.10
2012,04,07,10,42,8.10
2012,04,07,10,43,8.20
2012,04,07,10,44,8.20
2012,04,07,10,45,8.20
2012,04,07,10,46,8.20
2012,04,07,10,47,8.20
2012,04,07,10,48,8.20
2012,04,07,10,49,8.20
2012,04,07,10,50,8.10
2012,04,07,10,51,8.20
2012,04,07,10,52,8.20
2012,04,07,10,53,8.10
2012,04,07,10,54,8.10
2012,04,07,10,55,8.10
2012,04,07,10,56,8.10
2012,04,07,10,57,8.20
2012,04,07,10,58,8.20
2012,04,07,10,59,8.20
2012,04,07,11,00,8.20
2012,04,07,11,01,8.30
2012,04,07,11,02,8.30
2012,04,07,11,03,8.30
2012,04,07,11,04,8.30
2012,04,07,11,05,8.40
2012,04,07,11,06,8.60
2012,04,07,11,07,8.60
2012,04,07,11,08,8.60
2012,04,07,11,09,8.60
2012,04,07,11,10,8.50
2012,04,07,11,11,8.50
2012,04,07,11,12,8.50
2012,04,07,11,13,8.60
2012,04,07,11,14,8.60
2012,04,07,11,15,8.60
2012,04,07,11,16,8.70
2012,04,07,11,17,8.70
2012,04,07,11,18,8.80
2012,04,07,11,19,8.80
2012,04,07,11,20,8.70
2012,04,07,11,21,8.70
2012,04,07,11,22,8.70
2012,04,07,11,23,8.70
2012,04,07,11,24,8.70
2012,04,07,11,25,8.70
2012,04,07,11,26,8.60
2012,04,07,11,27,8.60
2012,04,07,11,28,8.60
2012,04,07,11,29,8.50
2012,04,07,11,30,8.50
2012,04,07,11,31,8.50
2012,04,07,11,32,8.50
2012,04,07,11,33,8.60
2012,04,07,11,34,8.60
2012,04,07,11,35,8.60
2012,04,07,11,36,8.70
2012,04,07,11,37,8.80
2012,04,07,11,38,8.90
2012,04,07,11,39,9.00
2012,04,07,11,40,8.90
2012,04,07,11,41,8.90
2012,04,07,11,42,8.90
2012,04,07,11,43,8.90
2012,04,07,11,44,8.90
2012,04,07,11,45,8.90
2012,04,07,11,46,8.90
2012,04,07,11,47,8.90
2012,04,07,11,48,8.90
2012,04,07,11,49,8.90
2012,04,07,11,50,8.90
2012,04,07,11,51,8.90
2012,04,07,11,52,8.90
2012,04,07,11,53,8.90
2012,04,07,11,54,8.90
2012,04,07,11,55,8.90
2012,04,07,11,56,9.00
2012,04,07,11,57,9.00
2012,04,07,11,58,9.00
2012,04,07,11,59,9.00
2012,04,07,12,00,9.00
2012,04,07,12,01,9.00
2012,04,07,12,02,9.00
2012,04,07,12,03,9.00
2012,04,07,12,04,9.00
2012,04,07,12,05,9.00
2012,04,07,12,06,9.00
2012,04,07,12,07,9.00
2012,04,07,12,08,9.00
2012,04,07,12,09,9.00
2012,04,07,12,10,9.00
2012,04,07,12,11,9.00
2012,04,07,12,12,9.10
2012,04,07,12,13,9.10
2012,04,07,12,14,9.10
2012,04,07,12,15,9.10
2012,04,07,12,16,9.10
2012,04,07,12,17,9.10
2012,04,07,12,18,9.20
2012,04,07,12,19,9.20
2012,04,07,12,20,9.20
2012,04,07,12,21,9.20
2012,04,07,12,22,9.20
2012,04,07,12,23,9.30
2012,04,07,12,24,9.30
2012,04,07,12,25,9.40
2012,04,07,12,26,9.40
2012,04,07,12,27,9.40
2012,04,07,12,28,9.40
2012,04,07,12,29,9.40
2012,04,07,12,30,9.40
2012,04,07,12,31,9.40
2012,04,07,12,32,9.40
2012,04,07,12,33,9.40
2012,04,07,12,34,9.40
2012,04,07,12,35,9.40
2012,04,07,12,36,9.50
2012,04,07,12,37,9.60
2012,04,07,12,38,9.50
2012,04,07,12,39,9.50
2012,04,07,12,40,9.50
2012,04,07,12,41,9.50
2012,04,07,12,42,9.50
2012,04,07,12,43,9.50
2012,04,07,12,44,9.60
2012,04,07,12,45,9.60
2012,04,07,12,46,9.60
2012,04,07,12,47,9.50
2012,04,07,12,48,9.50
2012,04,07,12,49,9.50
2012,04,07,12,50,9.60
2012,04,07,12,51,9.60
2012,04,07,12,52,9.60
2012,04,07,12,53,9.60
2012,04,07,12,54,9.70
2012,04,07,12,55,9.80
2012,04,07,12,56,9.80
2012,04,07,12,57,9.80
2012,04,07,12,58,9.80
2012,04,07,12,59,9.80
2012,04,07,13,00,9.80
2012,04,07,13,01,9.80
2012,04,07,13,02,9.90
2012,04,07,13,03,10.00
2012,04,07,13,04,10.10
2012,04,07,13,05,10.00
2012,04,07,13,06,10.00
2012,04,07,13,07,10.00
2012,04,07,13,08,9.90
2012,04,07,13,09,9.90
2012,04,07,13,10,9.90
2012,04,07,13,11,10.00
2012,04,07,13,12,10.00
2012,04,07,13,13,10.10
2012,04,07,13,14,10.10
2012,04,07,13,15,10.10
2012,04,07,13,16,10.10
2012,04,07,13,17,10.10
2012,04,07,13,18,10.10
2012,04,07,13,19,10.10
2012,04,07,13,20,10.10
2012,04,07,13,21,10.00
2012,04,07,13,22,10.00
2012,04,07,13,23,9.90
2012,04,07,13,24,10.00
2012,04,07,13,25,10.00
2012,04,07,13,26,10.00
2012,04,07,13,27,10.10
2012,04,07,13,28,10.10
2012,04,07,13,29,10.20
2012,04,07,13,30,10.30
2012,04,07,13,31,10.30
2012,04,07,13,32,10.30
2012,04,07,13,33,10.30
2012,04,07,13,34,10.30
2012,04,07,13,35,10.40
2012,04,07,13,36,10.40
2012,04,07,13,37,10.50
2012,04,07,13,38,10.50
2012,04,07,13,39,10.50
2012,04,07,13,40,10.50
2012,04,07,13,41,10.50
2012,04,07,13,42,10.40
2012,04,07,13,43,10.40
2012,04,07,13,44,10.40
2012,04,07,13,45,10.40
2012,04,07,13,46,10.50
2012,04,07,13,47,10.60
2012,04,07,13,48,10.70
2012,04,07,13,49,10.70
2012,04,07,13,50,10.80
2012,04,07,13,51,10.90
2012,04,07,13,52,10.90
2012,04,07,13,53,10.80
2012,04,07,13,54,10.70
2012,04,07,13,55,10.70
2012,04,07,13,56,10.70
2012,04,07,13,57,10.70
2012,04,07,13,58,10.70
2012,04,07,13,59,10.60
2012,04,07,14,00,10.50
2012,04,07,14,01,10.40
2012,04,07,14,02,10.40
2012,04,07,14,03,10.40
2012,04,07,14,04,10.50
2012,04,07,14,05,10.60
2012,04,07,14,06,10.70
2012,04,07,14,07,10.70
2012,04,07,14,08,10.70
2012,04,07,14,09,10.80
2012,04,07,14,10,10.90
2012,04,07,14,11,10.90
2012,04,07,14,12,10.90
2012,04,07,14,13,10.90
2012,04,07,14,14,10.90
2012,04,07,14,15,11.00
2012,04,07,14,16,11.00
2012,04,07,14,17,11.10
2012,04,07,14,18,11.10
2012,04,07,14,19,11.10
2012,04,07,14,20,11.10
2012,04,07,14,21,11.10
2012,04,07,14,22,11.10
2012,04,07,14,23,11.10
2012,04,07,14,24,11.10
2012,04,07,14,25,11.10
2012,04,07,14,26,11.10
2012,04,07,14,27,11.10
2012,04,07,14,28,11.10
2012,04,07,14,29,11.10
2012,04,07,14,30,11.10
2012,04,07,14,31,11.10
2012,04,07,14,32,11.10
2012,04,07,14,33,11.10
2012,04,07,14,34,11.30
2012,04,07,14,35,11.40
2012,04,07,14,36,11.40
2012,04,07,14,37,11.40
2012,04,07,14,38,11.40
2012,04,07,14,39,11.40
2012,04,07,14,40,11.30
2012,04,07,14,41,11.30
2012,04,07,14,42,11.40
2012,04,07,14,43,11.30
2012,04,07,14,44,11.30
2012,04,07,14,45,11.30
2012,04,07,14,46,11.30
2012,04,07,14,47,11.20
2012,04,07,14,48,11.20
2012,04,07,14,49,11.20
2012,04,07,14,50,11.20
2012,04,07,14,51,11.20
2012,04,07,14,52,11.20
2012,04,07,14,53,11.20
2012,04,07,14,54,11.20
2012,04,07,14,55,11.40
2012,04,07,14,56,11.40
2012,04,07,14,57,11.50
2012,04,07,14,58,11.50
2012,04,07,14,59,11.50
2012,04,07,15,00,11.50
2012,04,07,15,01,11.40
2012,04,07,15,02,11.40
2012,04,07,15,03,11.40
2012,04,07,15,04,11.40
2012,04,07,15,05,11.30
2012,04,07,15,06,11.30
2012,04,07,15,07,11.30
2012,04,07,15,08,11.40
2012,04,07,15,09,11.40
2012,04,07,15,10,11.40
2012,04,07,15,11,11.40
2012,04,07,15,12,11.40
2012,04,07,15,13,11.50
2012,04,07,15,14,11.50
2012,04,07,15,15,11.60
2012,04,07,15,16,11.60
2012,04,07,15,17,11.60
2012,04,07,15,18,11.60
2012,04,07,15,19,11.50
2012,04,07,15,20,11.60
2012,04,07,15,21,11.70
2012,04,07,15,22,11.70
2012,04,07,15,23,11.70
2012,04,07,15,24,11.70
2012,04,07,15,25,11.70
2012,04,07,15,26,11.70
2012,04,07,15,27,11.70
2012,04,07,15,28,11.70
2012,04,07,15,29,11.70
2012,04,07,15,30,11.60
2012,04,07,15,31,11.60
2012,04,07,15,32,11.60
2012,04,07,15,33,11.50
2012,04,07,15,34,11.40
2012,04,07,15,35,11.40
2012,04,07,15,36,11.40
2012,04,07,15,37,11.50
2012,04,07,15,38,11.50
2012,04,07,15,39,11.50
2012,04,07,15,40,11.60
2012,04,07,15,41,11.60
2012,04,07,15,42,11.60
2012,04,07,15,43,11.60
2012,04,07,15,44,11.60
2012,04,07,15,45,11.60
2012,04,07,15,46,11.60
2012,04,07,15,47,11.60
2012,04,07,15,48,11.70
2012,04,07,15,49,11.80
2012,04,07,15,50,11.90
2012,04,07,15,51,12.10
2012,04,07,15,52,12.20
2012,04,07,15,53,12.20
2012,04,07,15,54,12.20
2012,04,07,15,55,12.30
2012,04,07,15,56,12.30
2012,04,07,15,57,12.20
2012,04,07,15,58,12.20
2012,04,07,15,59,12.20
2012,04,07,16,00,12.30
2012,04,07,16,01,12.30
2012,04,07,16,02,12.20
2012,04,07,16,03,12.20
2012,04,07,16,04,12.20
2012,04,07,16,05,12.20
2012,04,07,16,06,12.20
2012,04,07,16,07,12.20
2012,04,07,16,08,12.20
2012,04,07,16,09,12.20
2012,04,07,16,10,12.20
2012,04,07,16,11,12.10
2012,04,07,16,12,12.10
2012,04,07,16,13,12.10
2012,04,07,16,14,12.10
2012,04,07,16,15,12.20
2012,04,07,16,16,12.30
2012,04,07,16,17,12.30
2012,04,07,16,18,12.40
2012,04,07,16,19,12.40
2012,04,07,16,20,12.50
2012,04,07,16,21,12.50
2012,04,07,16,22,12.50
2012,04,07,16,23,12.50
2012,04,07,16,24,12.40
2012,04,07,16,25,12.40
2012,04,07,16,26,12.40
2012,04,07,16,27,12.40
2012,04,07,16,28,12.40
2012,04,07,16,29,12.40
2012,04,07,16,30,12.40
2012,04,07,16,31,12.40
2012,04,07,16,32,12.50
2012,04,07,16,33,12.50
2012,04,07,16,34,12.40
2012,04,07,16,35,12.50
2012,04,07,16,36,12.50
2012,04,07,16,37,12.50
2012,04,07,16,38,12.50
2012,04,07,16,39,12.50
2012,04,07,16,40,12.50
2012,04,07,16,41,12.50
2012,04,07,16,42,12.60
2012,04,07,16,43,12.60
2012,04,07,16,44,12.60
2012,04,07,16,45,12.60
2012,04,07,16,46,12.50
2012,04,07,16,47,12.40
2012,04,07,16,48,12.40
2012,04,07,16,49,12.30
2012,04,07,16,50,12.30
2012,04,07,16,51,12.30
2012,04,07,16,52,12.30
2012,04,07,16,53,12.30
2012,04,07,16,54,12.30
2012,04,07,16,55,12.30
2012,04,07,16,56,12.30
2012,04,07,16,57,12.20
2012,04,07,16,58,12.20
2012,04,07,16,59,12.20
2012,04,07,17,00,12.20
2012,04,07,17,01,12.30
2012,04,07,17,02,12.30
2012,04,07,17,03,12.40
2012,04,07,17,04,12.40
2012,04,07,17,05,12.40
2012,04,07,17,06,12.40
2012,04,07,17,07,12.30
2012,04,07,17,08,12.30
2012,04,07,17,09,12.20
2012,04,07,17,10,12.20
2012,04,07,17,11,12.20
2012,04,07,17,12,12.20
2012,04,07,17,13,12.20
2012,04,07,17,14,12.20
2012,04,07,17,15,12.20
2012,04,07,17,16,12.20
2012,04,07,17,17,12.20
2012,04,07,17,18,12.20
2012,04,07,17,19,12.30
2012,04,07,17,20,12.30
2012,04,07,17,21,12.30
2012,04,07,17,22,12.30
2012,04,07,17,23,12.30
2012,04,07,17,24,12.30
2012,04,07,17,25,12.20
2012,04,07,17,26,12.20
2012,04,07,17,27,12.20
2012,04,07,17,28,12.20
2012,04,07,17,29,12.10
2012,04,07,17,30,12.10
2012,04,07,17,31,12.10
2012,04,07,17,32,12.20
2012,04,07,17,33,12.20
2012,04,07,17,34,12.20
2012,04,07,17,35,12.10
2012,04,07,17,36,12.10
2012,04,07,17,37,12.00
2012,04,07,17,38,11.90
2012,04,07,17,39,11.90
2012,04,07,17,40,11.90
2012,04,07,17,41,11.90
2012,04,07,17,42,11.90
2012,04,07,17,43,11.90
2012,04,07,17,44,11.90
2012,04,07,17,45,11.90
2012,04,07,17,46,12.00
2012,04,07,17,47,12.00
2012,04,07,17,48,12.00
2012,04,07,17,49,12.00
2012,04,07,17,50,11.90
2012,04,07,17,51,11.90
2012,04,07,17,52,11.90
2012,04,07,17,53,11.90
2012,04,07,17,54,11.90
2012,04,07,17,55,11.90
2012,04,07,17,56,12.00
2012,04,07,17,57,12.00